Location: Unspecified
(50.7693°N, 0.0000°E)
Time: 20:24:47
(UTC+00:00)

Transit 2A Rocket - Pass Details

Date: 29 October 2019
Orbit: 594 x 909 km, 66.7° (Epoch: 17 November)

Event Time Altitude Azimuth Distance (km) Brightness Sun altitude
Exits shadow 02:23:04 11° 56° (ENE) 1,984 7.8 -40.6°
Drops below altitude 10° 02:23:12 10° 56° (NE) 2,027 7.9 -40.6°
Sets 02:25:40 0° 45° (NE) 2,921 8.9 -40.3°
